Regional Weather Roundup
Issued by NWS

Home | Current Version | Previous Version | Text Only | Print | Product List | Glossary On
Versions: 1 2 3 4 5 6 7 8 9 10 11 12 13 14 15 16 17 18 19 20 21 22 23 24 25 26 27 28 29 30 31 32 33 34 35 36 37 38 39 40 41 42 43 44 45 46 47 48 49 50
000
ASUS43 KMKX 182310
RWRWI

WISCONSIN REGIONAL WEATHER ROUNDUP
NATIONAL WEATHER SERVICE MILWAUKEE/SULLIVAN WI
500 PM CST SUN FEB 18 2018

NOTE: "FAIR" INDICATES FEW OR NO CLOUDS BELOW 12,000 FEET WITH NO
SIGNIFICANT WEATHER AND/OR OBSTRUCTIONS TO VISIBILITY.

WIZ001-002-006>008-014>016-023>028-190000-
NORTHWEST WISCONSIN

CITY           SKY/WX    TMP DP  RH WIND       PRES   REMARKS
SUPERIOR ARPT  LGT SNOW  25  23  93 E10G18    29.72S VSB 1   WCI  15
ASHLAND        LGT SNOW  24  20  84 N17       29.71S FOG     WCI  11
HAYWARD        CLOUDY    38  26  62 S10       29.64F WCI  31
SIREN          CLOUDY    40  27  60 S8        29.63S WCI  34
CUMBERLAND     CLOUDY    37  27  65 S15       29.64S WCI  28
RICE LAKE      MOCLDY    40  26  58 S12G18    29.67S WCI  33
CHETEK         CLOUDY    39  26  59 S6        29.67S
LADYSMITH      MOCLDY    38  25  58 S12G17    29.70S WCI  31
EAU CLAIRE     FAIR      38  26  62 S12       29.69S WCI  30
MENOMONIE      FAIR      42  25  51 S21G26    29.67F
NEW RICHMOND   FAIR      40  28  62 S17       29.64S WCI  31
OSCEOLA        MOCLDY    40  29  64 S12       29.65F WCI  34
$$

WIZ003>005-009-010-017-018-190000-
NORTH CENTRAL WISCONSIN

CITY           SKY/WX    TMP DP  RH WIND       PRES   REMARKS
MANITOWISH WTR CLOUDY    32  22  67 S13G20    29.67F WCI  22
ARBOR VITAE    CLOUDY    37  26  66 S17G23    29.69F WCI  27
WOODRUFF       CLOUDY    37  26  66 S17G23    29.69F WCI  27
RHINELANDER    MOCLDY    34  23  64 S12G21    29.73S WCI  25
EAGLE RIVER    FAIR      32  20  62 S9G20     29.72F WCI  24
LAND O LAKES   CLOUDY    32  21  64 S13G18    29.72F WCI  22
PHILLIPS       CLOUDY    35  24  64 S13G20    29.68F WCI  26
TOMAHAWK       FAIR      33  23  64 S7        29.73F WCI  27
MEDFORD        FAIR      33  23  66 S16       29.72F WCI  23
MERRILL        FAIR      35  23  61 S14G23    29.76F WCI  26
$$

WIZ029-030-035-036-043>047-190000-
CENTRAL WISCONSIN

CITY           SKY/WX    TMP DP  RH WIND       PRES   REMARKS
WAUSAU         FAIR      33  23  66 S16G25    29.77R WCI  23
MOSINEE        MOCLDY    34  25  69 S16G25    29.79R WCI  23
MARSHFIELD     FAIR      34  24  67 S14       29.74R WCI  25
STEVENS POINT  FAIR      32  22  67 S6G16     29.79S WCI  26
WAUPACA        CLOUDY    36  25  64 SE14G23   29.82F WCI  27
WAUTOMA        CLOUDY    34  24  67 MISG        N/A
WISC RAPIDS    FAIR      36  21  54 S12G17    29.78F WCI  28
CAMP DOUGLAS   MOCLDY    38  24  57 S15       29.74F WCI  29
$$

WIZ011>013-019>022-031-037>040-048>050-190000-
NORTHEAST WISCONSIN

CITY           SKY/WX    TMP DP  RH WIND       PRES   REMARKS
ANTIGO         FAIR      31  23  73 S15G24    29.78R WCI  20
SHAWANO        CLOUDY    37  24  59 S10G20    29.83F WCI  30
OCONTO         CLOUDY    32  26  80 S14G25    29.87F WCI  22
STURGEON BAY   CLOUDY    32  28  86 S18G32    29.90S WCI  20
GREEN BAY      CLOUDY    34  25  69 S20       29.88F WCI  23
MANITOWOC      CLOUDY    32  28  85 S24G35    29.93F WCI  19
APPLETON       CLOUDY    36  21  55 S17G25    29.84F WCI  25
CLINTONVILLE   CLOUDY    35  23  62 S18G24    29.83F WCI  24
OSHKOSH        CLOUDY    36  25  64 S18G26    29.86F WCI  26
$$

WIZ032>034-041-042-053>061-190000-
SOUTHWEST WISCONSIN

CITY           SKY/WX    TMP DP  RH WIND       PRES   REMARKS
LA CROSSE      FAIR      41  26  55 S15       29.74R
SPARTA         FAIR      38  26  60 S5        29.77R WCI  35
VIROQUA        MOCLDY    37  27  67 S13       29.75R WCI  29
BOSCOBEL       FAIR      40  27  59 S7G22     29.80F
PRAIRIE DU CHI FAIR      40  26  59 SE10G23   29.77R WCI  33
PLATTEVILLE    FAIR      36  30  79 SE21G26   29.81F WCI  25
$$

WIZ056-057-062-063-064-067-068-190000-
SOUTH CENTRAL WISCONSIN

CITY           SKY/WX    TMP DP  RH WIND       PRES   REMARKS
REEDSBURG      CLOUDY    36  24  64 S16G26    29.79F WCI  26
BARABOO/DELLS  CLOUDY    35  24  65 S23G30    29.80F WCI  23
LONE ROCK      FAIR      37  28  70 SE14G23   29.82F WCI  28
MINERAL POINT  FAIR      34  32  93 SE23G31   29.80F WCI  22
MADISON        MOCLDY    33  25  72 S17G28    29.87F WCI  22
MIDDLETON      FAIR      35  28  73 S17G29    29.85F WCI  25
WATERTOWN      FAIR      35  24  66 SE13G20   29.90F WCI  26
MONROE         FAIR      32  30  93 SE21G31   29.86F WCI  20
JANESVILLE     CLOUDY    36  28  75 S18G24    29.92F WCI  25
$$

WIZ051-052-058>065-066-070>072-190000-
SOUTHEAST WISCONSIN

CITY           SKY/WX    TMP DP  RH WIND       PRES   REMARKS
MILWAUKEE      MOCLDY    33  27  78 S21G28    29.97F WCI  21
WAUKESHA       CLEAR     32  25  74 SE17      29.94F WCI  21
MILWAUKEE/TIMM CLEAR     34  25  69 SE13G21   29.97F WCI  25
RACINE         FAIR      33  28  81 S21G31    30.01F WCI  21
BURLINGTON     FAIR      36  24  61 S10       29.96F WCI  28
KENOSHA        FAIR      34  26  72 S17G25    29.99F WCI  23
FOND DU LAC    CLOUDY    37  23  56 S21G37    29.87F WCI  26
SHEBOYGAN      CLOUDY    32  28  85 S24G31    29.94F WCI  19
WEST BEND      FAIR      32  28  86 SE10G17   29.93F WCI  24
JUNEAU         FAIR      34  24  67 SE18      29.90F WCI  23
$$

LSZ147-162-190000-
LAKE SUPERIOR

STATION/POSITION TIME  TEMP    WIND        PRES    WAVE
                       AIR SEA DIR/SP/G            HT/PER
                 (UTC) (F)     (DEG/KT/KT) (MB)    (FT/S)
DEVILS ISLAND    2300   24      60/ 23/ 26 1008.2F
SAXON HARBOR     2230   29     360/  3/  4 1005.8S
$$

LMZ867-665-643>646-190000-
LAKE MICHIGAN

STATION/POSITION TIME  TEMP    WIND        PRES    WAVE
                       AIR SEA DIR/SP/G            HT/PER
                 (UTC) (F)     (DEG/KT/KT) (MB)    (FT/S)
NORTHPORT PIER   2240   33                 1012.9F
KEWAUNEE LAKESHO 2248   33     170/ 29/ 35 1013.0F
SHEBOYGAN LAKESH 2300   33     170/ 35/ 41 1014.2F
PORT WASHINGTON  2240   33     170/ 21/ 30 1016.6F
MILWAUKEE LAKESH 2250   32     150/ 22/ 24   N/A
KENOSHA   LAKESH 2300   33     160/ 26/ 32 1015.2
$$

TC  - TEMPERATURE IN CELSIUS
VSB - VISIBILITY IN STATUTE MILES
WCI - WIND CHILL INDEX
HX  - HEAT INDEX





USA.gov is the U.S. government's official web portal to all federal, state and local government web resources and services.